CUTE-1 (CO-55) 1 27844U 03031E 25347.01153825 .00000577 00000+0 26952-3 0 9993 2 27844 98.6765 352.9111 0009774 12.6791 347.4632 14.24179528165175 CUBESAT XI-IV (CO-57) 1 27848U 03031J 25346.97818520 .00000480 00000+0 23011-3 0 9997 2 27848 98.6792 352.7398 0009978 30.1158 330.0593 14.23487467164886 CUBESAT XI-V 1 28895U 05043F 25346.91750934 .00003111 00000+0 50413-3 0 9993 2 28895 98.2721 133.9982 0015361 77.6955 282.5970 14.71901702 74346 CUTE-1.7+APD II (CO-65) 1 32785U 08021C 25346.97072370 .00008338 00000+0 55984-3 0 9996 2 32785 97.8081 320.0626 0007882 309.9926 50.0608 15.07048905957124 CANX-2 1 32790U 08021H 25346.90034711 .00006511 00000+0 47819-3 0 9991 2 32790 97.8427 318.5437 0009551 321.9241 38.1308 15.03770857956795 SEEDS II (CO-66) 1 32791U 08021J 25346.90355358 .00024851 00000+0 98874-3 0 9999 2 32791 97.7445 332.0548 0001299 206.8395 153.2775 15.25261469958822 SWISSCUBE 1 35932U 09051B 25346.97619147 .00002379 00000+0 48444-3 0 9998 2 35932 98.4141 246.5608 0008127 73.7837 286.4257 14.61959751861945 BEESAT-1 1 35933U 09051C 25346.68776356 .00002032 00000+0 42158-3 0 9995 2 35933 98.4071 246.2790 0006549 86.3913 273.8036 14.61278670861947 ITUPSAT1 1 35935U 09051E 25346.99698245 .00001702 00000+0 36449-3 0 9990 2 35935 98.4167 245.9717 0008735 94.2056 266.0142 14.60034439861567 TISAT 1 1 36799U 10035E 25346.77735322 .00026259 00000+0 11020-2 0 9998 2 36799 98.0593 273.1699 0003356 132.5694 227.5825 15.23455242839244 AEROCUBE 4.5A 1 38767U 12048K 25347.01103792 .00068780 00000+0 11604-2 0 9992 2 38767 64.6425 318.4819 0066868 231.7849 127.7259 15.48709523343515 STRAND-1 1 39090U 13009E 25346.73923578 .00000605 00000+0 21839-3 0 9994 2 39090 98.3822 166.6307 0009724 70.8381 289.3858 14.37005102670282 BRITE-AUSTRIA 1 39091U 13009F 25346.95316201 .00000384 00000+0 14554-3 0 9998 2 39091 98.3887 166.0681 0011332 77.7381 282.5074 14.36436124670317 NEE-01 PEGASO 1 39151U 13018B 25346.89220839 .00004708 00000+0 46537-3 0 9999 2 39151 98.0952 120.3769 0013813 60.1034 300.1554 14.92351580682903 POPACS 1 1 39268U 13055D 25346.60171344 .00276298 24300-4 81423-3 0 9996 2 39268 80.9548 211.8249 0115824 46.7665 314.3195 15.82148220643558 POPACS 2 1 39269U 13055E 25346.76349459 .00023073 00000+0 41618-3 0 9997 2 39269 80.9949 356.5017 0448243 69.9523 294.9348 14.83414311635492 POPACS 3 1 39270U 13055F 25346.97090160 .00011862 00000+0 29532-3 0 9998 2 39270 81.0045 70.4832 0567131 275.5317 78.1480 14.51853305611492 ZACUBE-1 (TSHEPISOSAT) 1 39417U 13066B 25346.85863495 .00007005 00000+0 57114-3 0 9990 2 39417 97.8066 303.4041 0041919 146.5952 213.7929 14.99088052652791 WNISAT-1 1 39423U 13066H 25346.73245953 .00001655 00000+0 30925-3 0 9993 2 39423 97.6929 144.4685 0165450 99.1638 262.8320 14.57642382639568 TRITON-1 1 39427U 13066M 25347.04652068 .00005592 00000+0 68460-3 0 9990 2 39427 97.8310 256.1563 0093245 120.0659 240.9841 14.80494646646537 GOMX-1 1 39430U 13066Q 25347.03796594 .00004411 00000+0 67583-3 0 9990 2 39430 97.6590 194.1447 0129750 315.6300 43.4566 14.68589249642588 CUBEBUG-2 (LO-74) 1 39440U 13066AA 25346.80623535 .00008328 00000+0 80135-3 0 9998 2 39440 97.8705 290.4776 0057908 285.6375 73.8458 14.91973898649180 NEE-02 KRYSAOR 1 39441U 13066AB 25346.77687354 .00005567 00000+0 62450-3 0 9996 2 39441 97.8723 282.6414 0066483 322.0014 37.6520 14.85597344648512 FUNCUBE-1 (AO-73) 1 39444U 13066AE 25346.85435673 .00013132 00000+0 88895-3 0 9991 2 39444 97.8061 310.1338 0040423 115.4885 245.0531 15.05959072651589 UWE-3 1 39446U 13066AG 25346.82146252 .00007966 00000+0 71419-3 0 9994 2 39446 97.8477 297.1713 0049486 218.9472 140.8180 14.95103595649715 BRITE-CA1 (TORONTO) 1 40020U 14033L 25346.84412807 .00002399 00000+0 36964-3 0 9994 2 40020 97.9488 114.5751 0079864 152.7286 207.8150 14.72211861614795 DUCHIFAT-1 1 40021U 14033M 25347.03531929 .00049389 00000+0 12066-2 0 9990 2 40021 98.0793 18.8803 0007426 34.0451 326.1268 15.40648601626893 NANOSATC-BR1 1 40024U 14033Q 25346.98790941 .00023816 00000+0 96560-3 0 9996 2 40024 98.0911 358.6648 0005752 103.8883 256.2993 15.24629686625547 QB50P1 1 40025U 14033R 25346.95020145 .00013616 00000+0 74266-3 0 9992 2 40025 98.0971 340.5587 0010473 134.3992 225.8098 15.14458664624803 QB50P2 1 40032U 14033Y 25346.94509866 .00012402 00000+0 72852-3 0 9992 2 40032 98.0643 327.8163 0009977 88.7587 271.4784 15.11822967624496 PERSEUS-M2 1 40037U 14033AD 25347.01403992 .00004027 00000+0 37617-3 0 9993 2 40037 97.9758 289.1303 0011398 189.1727 170.9287 14.94703618622966 PERSEUS-M1 1 40039U 14033AF 25346.79771893 .00003223 00000+0 30173-3 0 9994 2 40039 97.9461 283.2100 0011286 188.1954 171.9083 14.94757934622781 POLYITAN-1 1 40042U 14033AJ 25346.94529242 .00025909 00000+0 10177-2 0 9990 2 40042 98.1082 351.5367 0010483 78.9554 281.2861 15.25638401625123 TIGRISAT 1 40043U 14033AK 25346.97128839 .00004000 00000+0 47510-3 0 9992 2 40043 97.7558 136.6726 0049508 326.7824 33.0285 14.84125864617999 AEROCUBE 6A 1 40045U 14033AM 25346.91641873 .00010672 00000+0 95863-3 0 9992 2 40045 97.7036 151.3945 0039784 279.5109 80.1617 14.95270828618755 AEROCUBE 6B 1 40046U 14033AN 25346.42290820 .00011682 00000+0 10154-2 0 9992 2 40046 97.7035 150.3413 0037806 273.2698 86.4199 14.96584772618796 CANX-4 1 40055U 14034C 25346.68610224 .00002218 00000+0 29486-3 0 9999 2 40055 98.3358 209.8887 0011610 249.0698 110.9271 14.80788173616923 CANX-5 1 40056U 14034D 25346.88935313 .00002193 00000+0 29153-3 0 9994 2 40056 98.3362 210.1326 0011610 248.6944 111.3028 14.80805104607762 UKUBE-1 1 40074U 14037F 25346.98487741 .00014753 00000+0 91770-3 0 9994 2 40074 98.4142 326.3431 0003374 77.0742 283.0861 15.09740374620423 BRITE-PL2 (HEWELIUSZ) 1 40119U 14049B 25346.80078175 .00003389 00000+0 32560-3 0 9990 2 40119 97.8994 92.6656 0014557 13.5711 346.5897 14.93659581613617 AEROCUBE 5C 1 40965U 15058B 25346.82301142 .00007162 00000+0 63001-3 0 9992 2 40965 64.7670 121.8189 0137816 136.1155 225.1004 14.90169229337879 AEROCUBE 7 1 40966U 15058C 25346.72110673 .00008638 00000+0 70049-3 0 9998 2 40966 64.7629 108.1146 0128099 135.7767 225.3673 14.93970006338086 FOX-1A (AO-85) 1 40967U 15058D 25346.94284174 .00006872 00000+0 61802-3 0 9996 2 40967 64.7745 137.2177 0134869 129.9269 231.3787 14.89661347 85810 SINOD-D 1 1 40968U 15058E 25346.71855666 .00009323 00000+0 76142-3 0 9999 2 40968 64.7753 122.0772 0123281 128.1427 233.0875 14.94084016 88780 SNAP-3 ALICE 1 40970U 15058G 25346.79161272 .00054001 00000+0 15795-2 0 9992 2 40970 64.7616 13.9707 0044333 120.0261 240.5283 15.33959860 88085 LMRST-SAT 1 40971U 15058H 25346.71786196 .00006702 00000+0 60485-3 0 9995 2 40971 64.7751 133.9141 0137344 131.8056 229.4885 14.89312833 85778 SNAP-3 EDDIE 1 40972U 15058J 25346.77383634 .00051162 00000+0 14551-2 0 9994 2 40972 64.7538 5.8996 0047456 123.9530 236.6129 15.34705008 90206 PROPCUBE 3 1 40973U 15058K 25346.72580933 .00008491 00000+0 70859-3 0 9992 2 40973 64.7688 114.4436 0130469 133.8455 227.3530 14.92691398 86951 BISONSAT 1 40974U 15058L 25346.60808598 .00017557 00000+0 95808-3 0 9994 2 40974 64.7626 54.6661 0086851 129.5093 231.3749 15.11236136 87375 SNAP-3 JIMI 1 40975U 15058M 25346.98441748 .00011363 00000+0 81155-3 0 9995 2 40975 64.7663 87.8336 0112762 131.9052 229.1750 14.99814819 86277 PROPCUBE 1 (FLORA) 1 40976U 15058N 25346.84042862 .00006466 00000+0 60592-3 0 9995 2 40976 64.7736 152.2546 0136764 133.9131 227.3368 14.87981820 88526 SINOD-D 3 1 40977U 15058P 25346.85307972 .00009123 00000+0 77800-3 0 9996 2 40977 64.7725 136.9548 0125328 132.6164 228.5601 14.92297356 86938 HORYU-4 1 41340U 16012D 25347.00515990 .00062303 00000+0 10401-2 0 9993 2 41340 30.9951 308.1594 0006971 236.2016 123.7970 15.50612811541597 RAVAN 1 41849U 16067B 25346.58978643 .00040749 00000+0 10417-2 0 9994 2 41849 98.0163 211.7166 0006292 314.7716 45.3015 15.39321313498850 CELTEE 1 1 41850U 16067C 25346.53500581 .00010594 00000+0 53581-3 0 9998 2 41850 98.0878 195.3852 0001852 110.5237 249.6194 15.17244592497553 OPTICUBE 04 1 41851U 16067D 25346.96778956 .00005052 00000+0 32695-3 0 9995 2 41851 98.0827 184.4421 0016762 31.0713 329.1502 15.08555714497087 AEROCUBE 8D 1 41852U 16067E 25346.54874309 .00012831 00000+0 58055-3 0 9990 2 41852 98.0899 197.6546 0005062 65.1040 295.0719 15.21051495497660 AEROCUBE 8C 1 41853U 16067F 25346.53532223 .00013681 00000+0 61518-3 0 9998 2 41853 98.0762 195.1258 0005816 0.4394 359.6844 15.21243369497652 CORVUS BC2 1 42846U 17042X 25346.97066917 .00005417 00000+0 38782-3 0 9990 2 42846 97.3843 150.9856 0014524 34.3709 325.8455 15.04722808459047 CORVUS BC1 1 42847U 17042Y 25346.92478224 .00005990 00000+0 42579-3 0 9999 2 42847 97.3885 151.6209 0012649 13.7369 346.4200 15.04968137459069 MAKERSAT 0 1 43016U 17073D 25346.92237955 .00026829 00000+0 90000-3 0 9992 2 43016 97.4894 223.8295 0125907 210.6541 148.7298 15.23477134438024 SIRION PATHFINDER-2 1 43759U 18099B 25346.87794281 .00009113 00000+0 52889-3 0 9999 2 43759 97.4548 35.3481 0008143 216.8808 143.1864 15.12336146384442 CORVUS BC4 1 43767U 18099K 25346.64657477 .00007455 00000+0 45538-3 0 9998 2 43767 97.4359 30.0366 0006989 288.8785 71.1687 15.10547273384226 SPACEBEE-7 1 43816U 18099BL 25346.20270755 .00133586 00000+0 17349-2 0 9998 2 43816 97.4715 61.8461 0003195 166.2998 193.8345 15.58355758385441 SHIELDS 1 1 43850U 18104B 25346.80585304 .00164819 00000+0 68718-3 0 9998 2 43850 85.0056 263.6764 0008207 104.1311 256.0878 15.85207745390662 M2 PATHFINDER 1 45727U 20037E 25346.98011089 .00004475 00000+0 33211-3 0 9995 2 45727 97.8139 171.2162 0013636 65.5331 294.7315 15.03506224297508 NETSAT-4 1 46504U 20068U 25346.95778262 .00022540 00000+0 62834-3 0 9999 2 46504 97.8599 336.2657 0004234 265.3380 94.7379 15.36781490287101 NETSAT-3 1 46505U 20068V 25346.54406440 .00023213 00000+0 67775-3 0 9998 2 46505 97.8621 334.3430 0004115 292.3206 67.7599 15.35325874286978 NETSAT-1 1 46506U 20068W 25346.92733059 .00019893 00000+0 70562-3 0 9997 2 46506 97.8668 331.0454 0004352 315.9059 44.1832 15.29109143286781 NETSAT-2 1 46507U 20068X 25346.95718681 .00027842 00000+0 76330-3 0 9997 2 46507 97.8614 335.7405 0003006 321.6450 38.4579 15.37260245287048 WILDTRACKCUBE-SIMBA 1 47941U 21022K 25346.97736238 .00132482 00000+0 12303-2 0 9997 2 47941 97.4049 257.6596 0006713 26.7376 333.4229 15.66993549262124 GREENCUBE (IO-117) 1 53109U 22080E 25346.42057421 -.00000003 00000+0 00000+0 0 9997 2 53109 70.1569 3.1927 0009027 328.1546 31.8567 6.42583245 80060 SITRO-AIS 5 (KATYS) 1 57176U 23091L 25346.97882771 .00018448 00000+0 75054-3 0 9998 2 57176 97.5349 44.4932 0013567 43.6453 316.5855 15.24489241135921 SITRO-AIS 6 (CHIRKIN) 1 57192U 23091AC 25347.02637449 .00010464 00000+0 44700-3 0 9997 2 57192 97.5350 44.4080 0013817 45.9003 314.3367 15.22974567135921 SITRO-AIS 8 (ANOKHIN) 1 57193U 23091AD 25347.01375685 .00020348 00000+0 78161-3 0 9998 2 57193 97.5342 45.4739 0012803 41.9343 318.2874 15.26399684135990 SITRO-AIS 7 (FARTUSHNIY) 1 57194U 23091AE 25346.99844449 .00009843 00000+0 42327-3 0 9996 2 57194 97.5348 44.2807 0013655 46.6119 313.6252 15.22768356135912 SITRO-AIS 10 (BURDAEV) 1 57199U 23091AK 25346.99090596 .00025763 00000+0 86249-3 0 9997 2 57199 97.5358 48.8927 0008463 25.2539 334.9114 15.30904998136200 SITRO-AIS 9 (SHCHUKIN) 1 57201U 23091AM 25347.03565193 .00026273 00000+0 88727-3 0 9997 2 57201 97.5357 48.7826 0008488 25.6010 334.5649 15.30617666136207 SITRO-AIS 12 (SMIRENNIY) 1 57204U 23091AQ 25346.99186664 .00025740 00000+0 86356-3 0 9990 2 57204 97.5367 49.1043 0008214 19.4248 340.7304 15.30838388136212 SITRO-AIS 11 (SHEFFER) 1 57208U 23091AU 25346.98233337 .00025305 00000+0 84196-3 0 9990 2 57208 97.5365 49.2458 0008122 19.5695 340.5856 15.31109907136220 SITRO-AIS 25 1 59066U 24039R 25347.00720271 .00008438 00000+0 68623-3 0 9994 2 59066 95.3948 107.2682 0148139 258.1448 100.3131 14.91426137 96956 SITRO-AIS 26 1 59067U 24039S 25346.98523361 .00008011 00000+0 65420-3 0 9991 2 59067 95.3952 107.1856 0148403 258.6301 99.8220 14.91256581 96945 SITRO-AIS 27 1 59068U 24039T 25347.00481061 .00008396 00000+0 68015-3 0 9995 2 59068 95.3949 107.3905 0147596 257.5472 100.9204 14.91624381 96963 SITRO-AIS 28 1 59071U 24039U 25346.98673078 .00008103 00000+0 65605-3 0 9994 2 59071 95.3952 107.4154 0147440 257.4961 100.9735 14.91670897 96960 GRBBETA 1 60237U 24128C 25346.88430271 .00007979 00000+0 55797-3 0 9995 2 60237 61.9892 149.0500 0056314 96.6293 264.1214 15.04757495 78213 OOV-CUBE (TUBSAT-30) 1 60240U 24128F 25346.81342213 .00005090 00000+0 39224-3 0 9999 2 60240 61.9941 154.9269 0058467 94.2646 266.5129 15.01608814 78113 ROBUSTA-3A (MEDITERRAN*) 1 60243U 24128J 25346.93166704 .00011022 00000+0 69595-3 0 9990 2 60243 61.9859 145.2908 0056146 91.0076 269.7451 15.08219542 78296 LASARSAT 1 62391U 24247Q 25346.93281372 .00034206 00000+0 10064-2 0 9992 2 62391 44.9763 219.5604 0002072 142.4633 217.6397 15.34549713 54597 CROCUBE 1 62394U 24247T 25346.94771332 .00036095 00000+0 10386-2 0 9991 2 62394 44.9742 218.7654 0003388 138.9986 221.1155 15.35223642 54600